NY5V Weather Reports


time (UTC)temp
C
wind
direction
speed
KPH
gust
KPH
rain 1hr
cm
rain 24hr
cm
rain mn
cm
humidity
%
barometer
mb
20260505153015 22 10 9.7 12.9 0.00 0.00 0.00 86 1007.3
20260505152013 22 344 4.8 6.4 0.00 0.00 0.00 86 1007.5
20260505151011 22 308 4.8 9.7 0.00 0.00 0.00 86 1007.6
20260505124949 20 48 3.2 4.8 0.00 0.00 0.00 92 1007.4
20260505123947 21 6 4.8 4.8 0.00 0.00 0.00 91 1007.0
20260505122946 21 31 6.4 6.4 0.00 0.00 0.00 90 1007.2
20260505121946 21 353 3.2 4.8 0.00 0.00 0.00 90 1006.8
20260505120944 21 314 6.4 9.7 0.00 0.00 0.00 90 1006.8
20260505115940 21 32 1.6 3.2 0.00 0.00 0.00 90 1006.6
20260505114935 20 8 4.8 9.7 0.00 0.00 0.00 90 1006.6
20260505113934 20 67 9.7 12.9 0.00 0.00 0.00 90 1006.7
20260505112931 20 343 8.0 12.9 0.00 0.00 0.00 90 1006.7
20260505111931 20 64 4.8 6.4 0.00 0.00 0.00 90 1006.7
20260505110928 20 54 1.6 1.6 0.00 0.00 0.00 90 1006.8
20260505101926 20 355 3.2 6.4 0.00 0.00 0.00 90 1006.5
20260505100922 20 28 3.2 4.8 0.00 0.00 0.00 90 1006.5
20260505095921 20 45 1.6 3.2 0.00 0.00 0.00 90 1006.4
20260505094920 20 49 3.2 4.8 0.00 0.00 0.00 90 1006.1
20260505093919 20 37 1.6 3.2 0.00 0.00 0.00 90 1006.4
20260505092919 20 46 6.4 9.7 0.00 0.00 0.00 90 1006.5
20260505091914 20 33 3.2 4.8 0.00 0.00 0.00 90 1006.5
20260505090909 20 42 3.2 3.2 0.00 0.00 0.00 90 1006.8
20260505085904 20 296 4.8 11.3 0.00 0.00 0.00 90 1006.6
20260505084900 20 299 6.4 9.7 0.00 0.00 0.00 90 1006.9
20260505083856 20 251 6.4 11.3 0.00 0.00 0.00 90 1006.9
20260505082855 20 45 6.4 9.7 0.00 0.00 0.00 90 1006.9
20260505081854 20 287 12.9 20.9 0.00 0.00 0.00 90 1007.1
20260505080853 20 49 3.2 6.4 0.00 0.00 0.00 90 1007.2
20260505075851 20 49 1.6 1.6 0.00 0.00 0.00 90 1007.2
20260505074845 20 181 6.4 11.3 0.00 0.00 0.00 90 1007.4
20260505073845 20 17 1.6 1.6 0.00 0.00 0.00 90 1007.6
20260505072846 20 40 3.2 4.8 0.00 0.00 0.00 89 1007.6
20260505071844 20 339 6.4 9.7 0.00 0.00 0.00 89 1007.7
20260505070839 20 352 1.6 3.2 0.00 0.00 0.00 88 1008.0
20260505065836 20 246 6.4 9.7 0.00 0.00 0.00 88 1007.8
20260505064836 20 45 1.6 1.6 0.00 0.00 0.00 88 1008.0
20260505063831 20 27 3.2 6.4 0.00 0.00 0.00 87 1008.1
20260505062829 20 25 4.8 4.8 0.00 0.00 0.00 87 1008.2
20260505061829 20 34 0.0 1.6 0.00 0.00 0.00 86 1008.2
20260505060825 20 32 4.8 12.9 0.00 0.00 0.00 86 1008.4
20260505055823 20 47 3.2 4.8 0.00 0.00 0.00 86 1008.3
20260505054823 20 47 3.2 3.2 0.00 0.00 0.00 85 1008.3
20260505053818 20 32 1.6 1.6 0.00 0.00 0.00 84 1008.5
20260505052817 20 43 1.6 3.2 0.00 0.00 0.00 84 1008.6
20260505051816 21 21 4.8 4.8 0.00 0.00 0.00 83 1008.3
20260505050812 21 40 1.6 1.6 0.00 0.00 0.00 83 1008.7
20260505040803 21 4 6.4 11.3 0.00 0.00 0.00 79 1008.8
20260505035803 21 309 6.4 9.7 0.00 0.00 0.00 78 1008.9
20260505034802 21 80 1.6 4.8 0.00 0.00 0.00 77 1008.8
20260505033802 22 5 3.2 3.2 0.00 0.00 0.00 76 1008.8
20260505032757 22 90 3.2 3.2 0.00 0.00 0.00 75 1008.7
20260505031756 22 15 4.8 4.8 0.00 0.00 0.00 74 1008.5
20260505030756 22 13 3.2 4.8 0.00 0.00 0.00 73 1008.5
20260505025753 22 47 0.0 0.0 0.00 0.00 0.00 73 1008.3
20260505024749 22 10 3.2 6.4 0.00 0.00 0.00 71 1008.2
20260505023749 22 49 1.6 1.6 0.00 0.00 0.00 71 1008.2
20260505022749 22 4 1.6 3.2 0.00 0.00 0.00 70 1008.4
20260505021749 22 28 1.6 3.2 0.00 0.00 0.00 69 1008.3
20260505020747 23 50 3.2 3.2 0.00 0.00 0.00 68 1008.5
20260505015746 23 80 1.6 3.2 0.00 0.00 0.00 68 1008.6
20260505014746 23 39 1.6 1.6 0.00 0.00 0.00 68 1008.4
20260505013745 23 45 0.0 1.6 0.00 0.00 0.00 67 1008.6
20260505012740 23 37 3.2 6.4 0.00 0.00 0.00 66 1008.2
20260505011739 23 38 6.4 9.7 0.00 0.00 0.00 65 1008.1
20260505010738 23 31 4.8 4.8 0.00 0.00 0.00 64 1008.4
20260505005737 23 37 3.2 3.2 0.00 0.00 0.00 64 1008.2
20260505004737 24 37 1.6 3.2 0.00 0.00 0.00 63 1008.1
20260505003736 24 38 1.6 1.6 0.00 0.00 0.00 61 1008.2
20260505002736 25 22 3.2 4.8 0.00 0.00 0.00 60 1008.1
20260505001737 25 337 1.6 4.8 0.00 0.00 0.00 60 1008.3
20260505000737 25 49 1.6 3.2 0.00 0.00 0.00 60 1008.3
20260504235731 25 354 6.4 6.4 0.00 0.00 0.00 59 1008.4
20260504234730 25 353 4.8 6.4 0.00 0.00 0.00 59 1008.7
20260504233729 25 31 4.8 6.4 0.00 0.00 0.00 58 1008.8
20260504232728 25 55 3.2 3.2 0.00 0.00 0.00 59 1008.9
20260504231728 26 46 4.8 9.7 0.00 0.00 0.00 57 1008.9
20260504230726 25 356 3.2 4.8 0.00 0.00 0.00 57 1008.9
20260504225723 26 51 0.0 1.6 0.00 0.00 0.00 57 1008.8
20260504224722 26 354 3.2 3.2 0.00 0.00 0.00 57 1009.0
20260504223722 26 54 4.8 6.4 0.00 0.00 0.00 57 1009.2
20260504222720 26 50 0.0 0.0 0.00 0.00 0.00 55 1009.3
20260504221720 26 312 1.6 6.4 0.00 0.00 0.00 55 1009.3
20260504220720 26 352 3.2 11.3 0.00 0.00 0.00 53 1009.4
20260504215720 26 50 3.2 4.8 0.00 0.00 0.00 54 1009.3
20260504214718 25 45 4.8 9.7 0.00 0.00 0.00 53 1009.7
20260504213718 26 297 3.2 4.8 0.00 0.00 0.00 53 1010.1
20260504212717 26 290 3.2 4.8 0.00 0.00 0.00 55 1010.0
20260504211717 26 313 9.7 12.9 0.00 0.00 0.00 52 1010.4
20260504210716 26 37 1.6 3.2 0.00 0.00 0.00 51 1010.4
20260504205716 26 305 1.6 4.8 0.00 0.00 0.00 52 1010.5
20260504204712 26 29 3.2 4.8 0.00 0.00 0.00 51 1010.9
20260504203709 25 34 4.8 6.4 0.00 0.00 0.00 52 1011.1
20260504202706 26 345 8.0 11.3 0.00 0.00 0.00 52 1011.2
20260504201700 25 319 12.9 16.1 0.00 0.00 0.00 50 1011.4
20260504200655 25 297 8.0 12.9 0.00 0.00 0.00 52 1011.6
20260504195653 26 13 3.2 3.2 0.00 0.00 0.00 52 1011.6
20260504194652 25 311 6.4 9.7 0.00 0.00 0.00 52 1012.1
20260504193650 26 326 4.8 6.4 0.00 0.00 0.00 51 1012.4
20260504192646 25 46 1.6 1.6 0.00 0.00 0.00 53 1012.1
20260504191642 25 12 8.0 11.3 0.00 0.00 0.00 52 1012.2
20260504190640 25 305 9.7 14.5 0.00 0.00 0.00 50 1012.5
20260504185639 25 44 1.6 1.6 0.00 0.00 0.00 52 1012.6
20260504184638 25 319 6.4 6.4 0.00 0.00 0.00 51 1012.6
20260504183636 25 18 3.2 3.2 0.00 0.00 0.00 50 1012.8
20260504182631 25 37 6.4 9.7 0.00 0.00 0.00 51 1013.3
20260504181631 25 0 3.2 3.2 0.00 0.00 0.00 51 1013.3
20260504180628 25 30 3.2 4.8 0.00 0.00 0.00 50 1013.5
20260504175623 25 49 1.6 1.6 0.00 0.00 0.00 52 1013.5
20260504174618 24 20 1.6 1.6 0.00 0.00 0.00 52 1013.7
20260504173617 25 354 1.6 3.2 0.00 0.00 0.00 50 1013.8
20260504172616 24 31 3.2 4.8 0.00 0.00 0.00 51 1014.1
20260504171615 23 35 4.8 4.8 0.00 0.00 0.00 53 1014.1
20260504170614 23 353 4.8 6.4 0.00 0.00 0.00 51 1014.2